User: anonymous   Login
Location: Writing-on-Stone Provincial Park
(49.0825°N, 111.6163°W)
Time: 15:35:23
(UTC-06:00)
Language:

BREEZE-M DEB (TANK) - Orbit

View from above orbital plane
View from above orbital plane
View from above satellite
View from above satellite

Ground track
Ground track

The orbit data is extracted from the following two-line orbital elements,

1 29649U 06056B   17232.32758441  .00001460  00000-0  35806-3 0  9992
2 29649  49.4742 186.9524 5370472 201.4372 123.1228  4.99662976190977
Epoch (UTC): 20 August 2017 07:51:43
Eccentricity: 0.5370472
inclination: 49.4742°
perigee height: 313 km
apogee height: 15836 km
right ascension of ascending node: 186.9524°
argument of perigee: 201.4372°
revolutions per day: 4.99662976
mean anomaly at epoch: 123.1228°
orbit number at epoch: 19097

The dashed part of the orbit path shows where the satellite is in the earth's shadow,  

DLR